Satellite-Ground Cal/Val Region Overpasses Predictions

Prediction of Satellite NPP Overpassing Cal/Val Region: PacNW

Region Location: (Latitude: 10.00, Longitude: 139.50) to (Latitude: 22.70, Longitude: 165.60).

Table of predicted overpasses for the next 14.0 days since TLE Epoch: 3/13/2021
Interval Starting Time Starting Location Ending Time Ending Location
1 03/13/2021 03:35:55 ( 10.02, 145.62) 03/13/2021 03:39:31 ( 22.70, 142.60)
2 03/13/2021 14:29:26 ( 11.67, 165.60) 03/13/2021 14:29:54 ( 10.02, 165.22)
3 03/13/2021 16:07:48 ( 22.70, 142.86) 03/13/2021 16:11:24 ( 10.02, 139.84)
4 03/14/2021 03:16:54 ( 10.06, 150.37) 03/14/2021 03:20:29 ( 22.68, 147.37)
5 03/14/2021 15:48:47 ( 22.66, 147.61) 03/14/2021 15:52:22 ( 10.04, 144.61)
6 03/15/2021 02:57:52 ( 10.04, 155.14) 03/15/2021 03:01:27 ( 22.66, 152.13)
7 03/15/2021 15:29:44 ( 22.68, 152.37) 03/15/2021 15:33:19 ( 10.06, 149.37)
8 03/16/2021 02:38:49 ( 10.02, 159.90) 03/16/2021 02:42:25 ( 22.69, 156.88)
9 03/16/2021 15:10:43 ( 22.64, 157.12) 03/16/2021 15:14:18 ( 10.02, 154.12)
10 03/17/2021 02:19:48 ( 10.05, 164.65) 03/17/2021 02:23:23 ( 22.67, 161.65)
11 03/17/2021 14:51:40 ( 22.66, 161.89) 03/17/2021 14:55:15 ( 10.04, 158.88)
12 03/18/2021 03:42:15 ( 10.04, 144.04) 03/18/2021 03:45:50 ( 22.66, 141.03)
13 03/18/2021 14:33:51 ( 18.40, 165.60) 03/18/2021 14:36:14 ( 10.00, 163.63)
14 03/18/2021 16:14:08 ( 22.67, 141.27) 03/18/2021 16:16:12 ( 15.40, 139.51)
15 03/19/2021 03:23:13 ( 10.02, 148.80) 03/19/2021 03:26:48 ( 22.64, 145.80)
16 03/19/2021 15:55:05 ( 22.69, 146.04) 03/19/2021 15:58:41 ( 10.01, 143.02)
17 03/20/2021 03:04:10 ( 10.00, 153.56) 03/20/2021 03:07:46 ( 22.68, 150.55)
18 03/20/2021 15:36:04 ( 22.65, 150.79) 03/20/2021 15:39:39 ( 10.03, 147.78)
19 03/21/2021 02:45:09 ( 10.04, 158.31) 03/21/2021 02:48:44 ( 22.66, 155.31)
20 03/21/2021 15:17:01 ( 22.67, 155.55) 03/21/2021 15:20:36 ( 10.05, 152.55)
21 03/22/2021 02:26:06 ( 10.02, 163.08) 03/22/2021 02:29:41 ( 22.64, 160.07)
22 03/22/2021 14:57:59 ( 22.69, 160.31) 03/22/2021 15:01:35 ( 10.01, 157.30)
23 03/23/2021 02:09:47 ( 19.58, 165.59) 03/23/2021 02:10:40 ( 22.68, 164.82)
24 03/23/2021 03:48:34 ( 10.01, 142.46) 03/23/2021 03:52:06 ( 22.46, 139.51)
25 03/23/2021 14:38:58 ( 22.65, 165.06) 03/23/2021 14:42:33 ( 10.03, 162.06)
26 03/23/2021 16:20:28 ( 22.64, 139.69) 03/23/2021 16:20:40 ( 21.94, 139.51)
27 03/24/2021 03:29:32 ( 10.05, 147.21) 03/24/2021 03:33:07 ( 22.67, 144.21)
28 03/24/2021 16:01:25 ( 22.66, 144.45) 03/24/2021 16:05:00 ( 10.04, 141.45)
29 03/25/2021 03:10:30 ( 10.03, 151.98) 03/25/2021 03:14:05 ( 22.66, 148.97)
30 03/25/2021 15:42:23 ( 22.68, 149.21) 03/25/2021 15:45:58 ( 10.06, 146.21)
31 03/26/2021 02:51:27 ( 10.02, 156.74) 03/26/2021 02:55:03 ( 22.70, 153.72)
